TimeCDT,TemperatureF,Dew PointF,Humidity,Sea Level PressureIn,VisibilityMPH,Wind Direction,Wind SpeedMPH,Gust SpeedMPH,PrecipitationIn,Events,Conditions,WindDirDegrees,DateUTC
12:15 AM,75.2,50.0,41,29.97,10.0,SW,12.7,18.4,N/A,,Clear,230,2013-05-15 05:15:00
12:35 AM,75.2,50.0,41,29.97,10.0,SW,8.1,-,N/A,,Clear,230,2013-05-15 05:35:00
12:55 AM,73.4,50.0,44,29.98,10.0,SW,9.2,-,N/A,,Clear,220,2013-05-15 05:55:00
1:15 AM,71.6,51.8,50,29.98,10.0,SW,10.4,-,N/A,,Clear,220,2013-05-15 06:15:00
1:35 AM,71.6,51.8,50,29.98,10.0,SW,11.5,-,N/A,,Clear,230,2013-05-15 06:35:00
1:55 AM,71.6,51.8,50,29.98,10.0,SW,9.2,-,N/A,,Clear,230,2013-05-15 06:55:00
2:15 AM,71.6,51.8,50,29.98,10.0,WSW,9.2,17.3,N/A,,Clear,240,2013-05-15 07:15:00
2:35 AM,71.6,53.6,53,29.98,10.0,WSW,11.5,20.7,N/A,,Clear,240,2013-05-15 07:35:00
2:55 AM,71.6,53.6,53,29.98,10.0,WSW,11.5,-,N/A,,Clear,240,2013-05-15 07:55:00
3:15 AM,71.6,53.6,53,29.98,10.0,SW,11.5,17.3,N/A,,Clear,230,2013-05-15 08:15:00
3:35 AM,71.6,53.6,53,29.98,10.0,WSW,10.4,16.1,N/A,,Clear,240,2013-05-15 08:35:00
3:55 AM,69.8,53.6,56,29.99,10.0,WSW,9.2,-,N/A,,Clear,240,2013-05-15 08:55:00
4:15 AM,69.8,51.8,53,29.99,10.0,WSW,10.4,17.3,N/A,,Clear,240,2013-05-15 09:15:00
4:35 AM,69.8,51.8,53,29.99,10.0,SW,10.4,-,N/A,,Clear,230,2013-05-15 09:35:00
4:55 AM,69.8,51.8,53,30.00,10.0,WSW,9.2,-,N/A,,Clear,240,2013-05-15 09:55:00
5:15 AM,69.8,51.8,53,30.00,10.0,SW,10.4,-,N/A,,Clear,230,2013-05-15 10:15:00
5:35 AM,68.0,51.8,56,30.00,10.0,SSW,8.1,-,N/A,,Clear,210,2013-05-15 10:35:00
5:55 AM,66.2,51.8,60,30.01,10.0,Calm,Calm,-,N/A,,Clear,0,2013-05-15 10:55:00
6:15 AM,64.4,51.8,64,30.01,10.0,SSW,3.5,-,N/A,,Clear,200,2013-05-15 11:15:00
6:35 AM,64.4,51.8,64,30.02,10.0,Calm,Calm,-,N/A,,Clear,0,2013-05-15 11:35:00
6:55 AM,66.2,51.8,60,30.02,10.0,Calm,Calm,-,N/A,,Clear,0,2013-05-15 11:55:00
7:15 AM,66.2,53.6,64,30.02,10.0,Calm,Calm,-,N/A,,Clear,0,2013-05-15 12:15:00
7:35 AM,68.0,53.6,60,30.02,10.0,SSW,6.9,-,N/A,,Clear,210,2013-05-15 12:35:00
7:55 AM,69.8,53.6,56,30.03,10.0,SSW,5.8,-,N/A,,Clear,200,2013-05-15 12:55:00
8:15 AM,71.6,53.6,53,30.03,10.0,SW,3.5,-,N/A,,Clear,230,2013-05-15 13:15:00
8:35 AM,73.4,53.6,50,30.03,10.0,SW,11.5,16.1,N/A,,Clear,220,2013-05-15 13:35:00
8:55 AM,73.4,53.6,50,30.03,10.0,SW,10.4,19.6,N/A,,Clear,230,2013-05-15 13:55:00
9:15 AM,75.2,53.6,47,30.02,10.0,WSW,8.1,-,N/A,,Clear,250,2013-05-15 14:15:00
9:35 AM,75.2,55.4,50,30.02,10.0,SW,12.7,-,N/A,,Clear,230,2013-05-15 14:35:00
9:55 AM,77.0,55.4,47,30.02,10.0,WSW,15.0,-,N/A,,Clear,240,2013-05-15 14:55:00
10:15 AM,77.0,55.4,47,30.02,10.0,WSW,8.1,-,N/A,,Clear,250,2013-05-15 15:15:00
10:35 AM,78.8,57.2,47,30.02,10.0,WSW,12.7,-,N/A,,Clear,240,2013-05-15 15:35:00
10:55 AM,78.8,57.2,47,30.02,10.0,WSW,10.4,18.4,N/A,,Clear,250,2013-05-15 15:55:00
11:15 AM,80.6,59.0,48,30.02,10.0,West,4.6,-,N/A,,Clear,270,2013-05-15 16:15:00
11:35 AM,80.6,57.2,45,30.00,10.0,SW,4.6,-,N/A,,Clear,230,2013-05-15 16:35:00
11:55 AM,82.4,57.2,42,30.00,10.0,SSW,6.9,-,N/A,,Clear,210,2013-05-15 16:55:00
12:15 PM,82.4,57.2,42,29.99,10.0,SSW,8.1,16.1,N/A,,Clear,210,2013-05-15 17:15:00
12:35 PM,82.4,57.2,42,29.98,10.0,South,6.9,-,N/A,,Clear,180,2013-05-15 17:35:00
12:55 PM,84.2,60.8,45,29.97,10.0,South,5.8,-,N/A,,Clear,180,2013-05-15 17:55:00
1:15 PM,84.2,60.8,45,29.97,10.0,South,9.2,-,N/A,,Clear,170,2013-05-15 18:15:00
1:35 PM,86.0,60.8,43,29.96,10.0,SSW,10.4,16.1,N/A,,Clear,210,2013-05-15 18:35:00
1:55 PM,86.0,60.8,43,29.96,10.0,SW,9.2,17.3,N/A,,Clear,220,2013-05-15 18:55:00
2:15 PM,86.0,59.0,40,29.95,10.0,SSW,16.1,21.9,N/A,,Clear,200,2013-05-15 19:15:00
2:35 PM,86.0,59.0,40,29.95,10.0,SSW,11.5,-,N/A,,Clear,200,2013-05-15 19:35:00
2:55 PM,84.2,59.0,42,29.94,10.0,SSW,11.5,19.6,N/A,,Clear,200,2013-05-15 19:55:00
3:15 PM,84.2,60.8,45,29.94,10.0,South,12.7,-,N/A,,Clear,190,2013-05-15 20:15:00
3:35 PM,84.2,60.8,45,29.93,10.0,South,10.4,-,N/A,,Clear,170,2013-05-15 20:35:00
3:55 PM,84.2,60.8,45,29.92,10.0,South,11.5,-,N/A,,Clear,190,2013-05-15 20:55:00
4:15 PM,84.2,60.8,45,29.92,10.0,South,12.7,-,N/A,,Clear,190,2013-05-15 21:15:00
4:35 PM,82.4,60.8,48,29.92,10.0,SSW,11.5,16.1,N/A,,Scattered Clouds,210,2013-05-15 21:35:00
4:55 PM,82.4,60.8,48,29.92,10.0,SSW,13.8,-,N/A,,Partly Cloudy,200,2013-05-15 21:55:00
5:15 PM,82.4,62.6,51,29.92,10.0,South,11.5,-,N/A,,Clear,190,2013-05-15 22:15:00
5:35 PM,82.4,60.8,48,29.91,10.0,South,11.5,-,N/A,,Clear,190,2013-05-15 22:35:00
5:55 PM,82.4,62.6,51,29.91,10.0,SSW,13.8,-,N/A,,Clear,200,2013-05-15 22:55:00
6:15 PM,80.6,60.8,51,29.91,10.0,SSW,15.0,-,N/A,,Clear,200,2013-05-15 23:15:00
6:35 PM,80.6,60.8,51,29.91,10.0,South,9.2,17.3,N/A,,Clear,190,2013-05-15 23:35:00
6:55 PM,78.8,60.8,54,29.92,10.0,SSW,16.1,20.7,N/A,,Clear,210,2013-05-15 23:55:00
7:15 PM,78.8,60.8,54,29.92,10.0,SSW,13.8,19.6,N/A,,Clear,210,2013-05-16 00:15:00
7:35 PM,77.0,62.6,61,29.92,10.0,SSW,11.5,-,N/A,,Clear,200,2013-05-16 00:35:00
7:55 PM,75.2,62.6,65,29.93,10.0,SSW,12.7,20.7,N/A,,Clear,200,2013-05-16 00:55:00
8:15 PM,75.2,62.6,65,29.93,10.0,SSW,11.5,17.3,N/A,,Clear,200,2013-05-16 01:15:00
8:35 PM,73.4,62.6,69,29.93,10.0,SSW,10.4,-,N/A,,Clear,210,2013-05-16 01:35:00
8:55 PM,73.4,62.6,69,29.94,10.0,SSW,10.4,-,N/A,,Clear,200,2013-05-16 01:55:00
9:15 PM,73.4,62.6,69,29.95,10.0,South,6.9,-,N/A,,Clear,180,2013-05-16 02:15:00
9:35 PM,71.6,62.6,73,29.95,10.0,South,9.2,-,N/A,,Clear,180,2013-05-16 02:35:00
9:55 PM,71.6,62.6,73,29.95,10.0,South,6.9,-,N/A,,Clear,170,2013-05-16 02:55:00
10:15 PM,71.6,62.6,73,29.95,10.0,South,6.9,-,N/A,,Clear,190,2013-05-16 03:15:00
10:35 PM,71.6,62.6,73,29.95,10.0,South,9.2,-,N/A,,Clear,190,2013-05-16 03:35:00
10:55 PM,69.8,62.6,78,29.94,10.0,SSW,6.9,-,N/A,,Clear,200,2013-05-16 03:55:00
11:15 PM,69.8,62.6,78,29.94,10.0,SSW,8.1,-,N/A,,Clear,200,2013-05-16 04:15:00
11:55 PM,69.8,62.6,78,29.93,10.0,SSW,11.5,-,N/A,,Clear,200,2013-05-16 04:55:00